Tracking 28348 objects as of 8-Dec-2023
HD Live streaming from Space Station
objects crossing your sky now

STARLINK-30477

Track STARLINK-30477 now!
10-day predictions
STARLINK-30477 is classified as:


NORAD ID: 57912
Int'l Code: 2023-146X
Perigee: 565.4 km
Apogee: 567.0 km
Inclination: 43.0 °
Period: 95.8 minutes
Semi major axis: 6937 km
RCS: Unknown
Launch date: September 20, 2023
Source: United States (US)
Launch site: AIR FORCE EASTERN TEST RANGE (AFETR)
Your satellite tracking list
Your tracking list is empty




NASA's NSSDC Master Catalog

Two Line Element Set (TLE):
1 57912U 23146X   23341.57683759  .00000217  00000-0  31139-4 0  9994
2 57912  43.0025 105.4858 0001194 270.9210  89.1495 15.02542389 13253
Source of the keplerian elements: AFSPC